Location: Unspecified
(0.0000°N, 0.0000°E)
Time: 07:58:09
(UTC+02:00)

GPS 2-12 Rocket1 - Visible Passes

Search period start: 01 September 2015 00:00
Search period end: 11 September 2015 00:00
Orbit: 589 x 655 km, 20.0° (Epoch: 31 August)

Date Brightness Start Highest point End Pass type
(mag) Time Alt. Az. Time Alt. Az. Time Alt. Az.
01 Sep 5.1 05:58:54 21° NNE 05:58:54 21° NNE 06:01:03 10° NE visible
02 Sep 5.2 06:14:48 17° N 06:14:48 17° N 06:17:13 10° NNE visible
03 Sep 5.4 06:30:41 11° NNW 06:31:16 12° NNW 06:32:52 10° N visible
07 Sep 5.5 21:32:11 10° S 21:32:40 11° S 21:32:40 11° S visible
08 Sep 5.5 21:47:51 10° SSW 21:48:40 13° SSW 21:48:40 13° SSW visible
09 Sep 5.3 20:22:39 10° S 20:24:02 11° SSE 20:25:29 10° SSE visible
09 Sep 5.6 22:04:03 10° SW 22:04:43 13° SW 22:04:43 13° SW visible
10 Sep 4.9 20:38:12 10° SSW 20:41:11 17° SSE 20:43:43 12° SE visible
10 Sep 6.0 22:20:32 10° SW 22:20:47 11° SW 22:20:47 11° SW visible
